Weather History for Cincinnati, OH

Change the Weather History Date:

Monday, December 9, 2013

  Actual Average Record
Temperature  
Mean Temperature 30 °F -  
Max Temperature 34 °F 45 °F 64 °F (1991)
Min Temperature 26 °F 27 °F 5 °F (1977)
Degree Days  
Heating Degree Days 35    
Moisture  
Dew Point 26 °F    
Average Humidity 84    
Maximum Humidity 100    
Minimum Humidity 72    
Precipitation  
Precipitation 0.01 in - - ()
Sea Level Pressure  
Sea Level Pressure 30.17 in    
Wind  
Wind Speed 8 mph (SW)    
Max Wind Speed 15 mph    
Max Gust Speed 21 mph    
Visibility 9 miles    
Events      
Averages and records for this station are not official NWS values.
T = Trace of Precipitation, MM = Missing Value Source: NWS Daily Summary

Daily Weather History Graph

Daily Weather History Graph

Search for Another Location

Airport:

Trip Planner

Search our weather history database for the weather conditions in past years. The results will help you decide how hot, cold, wet, or windy it might be!

Date:

Astronomy

Dec. 09, 2013 Rise Set
Actual Time 7:45 AM EST 5:14 PM EST
Civil Twilight 7:15 AM EST 5:44 PM EST
Nautical Twilight 6:41 AM EST 6:18 PM EST
Astronomical Twilight 6:09 AM EST 6:50 PM EST
Moon 12:40 PM EST (12/9) 12:01 AM EST (12/9)
Length of Visible Light 10h 29m
Length of Day
9h 29m
Waxing Crescent, 51% of the Moon is Illuminated
Dec 9
Waxing Crescent
Dec 17
Full
Dec 25
Last Quarter
Jan 1
New
Jan 7
First Quarter

Hourly Weather History & Observations

Time (EST) Temp. Windchill Dew Point Humidity Pressure Visibility Wind Dir Wind Speed Gust Speed Precip Events Conditions
12:01 AM 32.0 °F 26.4 °F 32.0 °F 100% 30.03 in 4.0 mi South 5.8 mph - N/A   Overcast
12:53 AM 33.1 °F 26.9 °F 32.0 °F 96% 30.04 in 8.0 mi South 6.9 mph - N/A   Overcast
1:04 AM 33.8 °F 27.7 °F 32.0 °F 93% 30.03 in 6.0 mi South 6.9 mph - N/A   Overcast
1:21 AM 33.8 °F 28.6 °F 32.0 °F 93% 30.03 in 4.0 mi SSW 5.8 mph - N/A   Overcast
1:53 AM 34.0 °F 27.2 °F 32.0 °F 92% 30.04 in 5.0 mi SSW 8.1 mph - N/A   Overcast
2:53 AM 33.1 °F 26.9 °F 32.0 °F 96% 30.04 in 7.0 mi SW 6.9 mph - N/A   Overcast
3:26 AM 33.8 °F 27.0 °F 32.0 °F 93% 30.04 in 7.0 mi SW 8.1 mph - N/A   Overcast
3:53 AM 33.1 °F 25.5 °F 32.0 °F 96% 30.06 in 6.0 mi SW 9.2 mph - N/A   Overcast
4:53 AM 34.0 °F 26.6 °F 32.0 °F 92% 30.06 in 8.0 mi SW 9.2 mph - N/A   Overcast
5:53 AM 33.1 °F 23.4 °F 30.9 °F 92% 30.09 in 8.0 mi WSW 13.8 mph - N/A   Overcast
6:53 AM 33.1 °F 24.4 °F 30.0 °F 89% 30.11 in 10.0 mi SW 11.5 mph - N/A   Overcast
7:53 AM 33.1 °F 23.4 °F 28.9 °F 85% 30.14 in 10.0 mi WSW 13.8 mph 20.7 mph 0.01 in   Overcast
8:53 AM 32.0 °F 24.2 °F 28.0 °F 85% 30.17 in 10.0 mi WSW 9.2 mph - N/A   Overcast
9:53 AM 30.9 °F 20.2 °F 26.1 °F 82% 30.20 in 10.0 mi WSW 15.0 mph 20.7 mph N/A   Overcast
10:53 AM 30.9 °F 21.2 °F 25.0 °F 79% 30.23 in 10.0 mi West 12.7 mph - N/A   Overcast
11:53 AM 30.0 °F 22.4 °F 25.0 °F 82% 30.20 in 10.0 mi WSW 8.1 mph - N/A   Overcast
12:53 PM 30.9 °F 21.2 °F 24.1 °F 76% 30.20 in 10.0 mi West 12.7 mph - N/A   Overcast
1:53 PM 30.0 °F 24.1 °F 25.0 °F 82% 30.21 in 10.0 mi SW 5.8 mph - N/A   Overcast
2:53 PM 30.0 °F 19.1 °F 24.1 °F 79% 30.22 in 10.0 mi SW 15.0 mph - N/A   Overcast
3:53 PM 30.0 °F 21.1 °F 23.0 °F 75% 30.25 in 10.0 mi West 10.4 mph - N/A   Overcast
4:53 PM 28.9 °F 21.9 °F 23.0 °F 78% 30.25 in 10.0 mi WSW 6.9 mph - N/A   Overcast
5:53 PM 28.9 °F 21.1 °F 23.0 °F 78% 30.27 in 10.0 mi SW 8.1 mph - N/A   Overcast
6:53 PM 28.9 °F 21.1 °F 21.9 °F 75% 30.27 in 10.0 mi WSW 8.1 mph - N/A   Mostly Cloudy
7:38 PM 28.4 °F 21.2 °F 21.2 °F 74% 30.25 in 10.0 mi WSW 6.9 mph - N/A   Scattered Clouds
7:53 PM 28.0 °F 21.7 °F 21.9 °F 78% 30.27 in 10.0 mi WSW 5.8 mph - N/A   Scattered Clouds
8:53 PM 28.0 °F 20.8 °F 21.9 °F 78% 30.26 in 10.0 mi SW 6.9 mph - N/A   Mostly Cloudy
9:53 PM 28.0 °F 20.8 °F 21.9 °F 78% 30.24 in 10.0 mi SW 6.9 mph - N/A   Overcast
10:53 PM 27.0 °F 18.7 °F 21.9 °F 81% 30.25 in 10.0 mi WSW 8.1 mph - N/A   Mostly Cloudy
11:09 PM 28.4 °F 21.2 °F 21.2 °F 74% 30.24 in 10.0 mi West 6.9 mph - N/A   Overcast
11:48 PM 26.6 °F 19.1 °F 19.4 °F 74% 30.22 in 10.0 mi NW 6.9 mph - N/A   Scattered Clouds
11:53 PM 27.0 °F 20.5 °F 19.0 °F 72% 30.24 in 10.0 mi Variable 5.8 mph - N/A   Partly Cloudy